Location: Godiavel Galaoual
(15.2485°N, 12.6604°W)
Time: 01:14:40
(UTC+00:00)

Transit 4A - Pass Details

Date: 15 June 2021
Orbit: 872 x 972 km, 66.8° (Epoch: 29 July)

Event Time Altitude Azimuth Distance (km) Brightness Sun altitude
Rises 21:33:47 0° 333° (NNW) 3,460 11.9 -28.2°
Reaches altitude 10° 21:36:16 10° 330° (NNW) 2,528 11.0 -28.7°
Maximum altitude 21:42:00 61° 251° (WSW) 998 8.1 -29.7°
Enters shadow 21:42:18 61° 236° (SW) 1,006 8.0 -29.8°
Drops below altitude 10° 21:47:53 10° 171° (S) 2,578 - -30.8°
Sets 21:50:27 0° 168° (SSE) 3,534 - -31.3°
